Grazzanise, Italy

6:11 PM CEST on August 20, 2017 (GMT +0200)
Grazzanise Mil

Weather History for LIRM - September, 2013

Change the Weather History Date:

Sunday, September 22, 2013

  Actual Average (LIRN) Record (LIRN)
Temperature  
Mean Temperature 72 °F -  
Max Temperature 82 °F 74 °F 82 °F (1999)
Min Temperature 62 °F 55 °F 44 °F (1996)
Cooling Degree Days 7    
Growing Degree Days 22 (Base 50)    
Moisture  
Dew Point 55 °F    
Average Humidity 56    
Maximum Humidity 83    
Minimum Humidity 23    
Precipitation  
Precipitation 0.00 in 0.14 in - ()
Sea Level Pressure  
Sea Level Pressure 30.14 in    
Wind  
Wind Speed 8 mph ()    
Max Wind Speed 14 mph    
Max Gust Speed -    
Visibility 7.7 miles    
Events Rain    
Averages and records for this station are not official NWS values.
T = Trace of Precipitation, MM = Missing Value Source: Averaged Metar Reports

Daily Weather History Graph

Daily Weather History Graph

Search for Another Location

Airport or City:

Trip Planner

Search our weather history database for the weather conditions in past years. The results will help you decide how hot, cold, wet, or windy it might be!

Date:

Astronomy

Sep. 22, 2013 Rise Set
Actual Time 6:51 AM CEST 7:00 PM CEST
Civil Twilight 6:23 AM CEST 7:28 PM CEST
Nautical Twilight 5:51 AM CEST 8:00 PM CEST
Astronomical Twilight 5:18 AM CEST 8:33 PM CEST
Moon 8:37 PM CEST (9/22) 9:55 AM CEST (9/22)
Length of Visible Light 13h 04m
Length of Day
12h 09m
Waning Gibbous, 90% of the Moon is Illuminated
Sep 22
Waning Gibbous
Sep 27
Last Quarter
Oct 5
New
Oct 12
First Quarter
Oct 19
Full

Hourly Weather History & Observations

Time (CEST) Temp. Dew Point Humidity Pressure Visibility Wind Dir Wind Speed Gust Speed Precip Events Conditions
12:55 AM 71.6 °F 62.6 °F 73% 30.12 in 6.2 mi NE 9.2 mph - N/A   Mostly Cloudy
1:55 AM 68.0 °F 62.6 °F 83% 30.12 in 6.2 mi NE 9.2 mph - N/A   Mostly Cloudy
2:00 AM 68 °F 63 °F 79% 30.15 in 12 mi NE 9.2 mph - - Rain Light Rain
2:55 AM 68.0 °F 60.8 °F 78% 30.12 in 6.2 mi NE 9.2 mph - N/A   Mostly Cloudy
3:55 AM 68.0 °F 57.2 °F 68% 30.12 in 6.2 mi NNE 5.8 mph - N/A   Mostly Cloudy
4:55 AM 66.2 °F 59.0 °F 78% 30.12 in 6.2 mi NNE 5.8 mph - N/A   Scattered Clouds
5:55 AM 64.4 °F 57.2 °F 77% 30.12 in 6.2 mi NNE 5.8 mph - N/A   Scattered Clouds
6:55 AM 64.4 °F 57.2 °F 77% 30.12 in 6.2 mi NNE 6.9 mph - N/A   Scattered Clouds
7:55 AM 66.2 °F 59.0 °F 78% 30.15 in 6.2 mi NE 6.9 mph - N/A   Scattered Clouds
8:00 AM 67 °F 60 °F 72% 30.16 in 19 mi NE 6.9 mph - -   Partly Cloudy
8:55 AM 71.6 °F 60.8 °F 69% 30.15 in 6.2 mi NE 6.9 mph - N/A   Scattered Clouds
9:55 AM 75.2 °F 60.8 °F 61% 30.15 in 6.2 mi ENE 9.2 mph - N/A   Partly Cloudy
10:55 AM 77.0 °F 57.2 °F 50% 30.15 in 6.2 mi ENE 8.1 mph - N/A   Partly Cloudy
11:00 AM 77 °F 57 °F 40% 30.16 in 12 mi ENE 8.1 mph - -   Scattered Clouds
11:55 AM 78.8 °F 51.8 °F 39% 30.15 in 6.2 mi East 11.5 mph - N/A   Partly Cloudy
12:55 PM 80.6 °F 51.8 °F 37% 30.15 in 6.2 mi East 9.2 mph - N/A   Scattered Clouds
1:55 PM 80.6 °F 51.8 °F 37% 30.15 in 6.2 mi East 11.5 mph - N/A   Scattered Clouds
2:00 PM 81 °F 52 °F 26% 30.16 in 12 mi East 11.5 mph - -   Partly Cloudy
2:55 PM 80.6 °F 50.0 °F 34% 30.12 in 6.2 mi NE 11.5 mph - N/A   Scattered Clouds
3:55 PM 78.8 °F 48.2 °F 34% 30.12 in 6.2 mi NNE 13.8 mph - N/A   Scattered Clouds
4:55 PM 78.8 °F 48.2 °F 34% 30.12 in 6.2 mi NNE 11.5 mph - N/A   Scattered Clouds
5:00 PM 79 °F 48 °F 23% 30.12 in 12 mi NNE 11.5 mph - -   Partly Cloudy
5:55 PM 77.0 °F 48.2 °F 36% 30.12 in 6.2 mi NE 11.5 mph - N/A   Scattered Clouds
6:55 PM 71.6 °F 48.2 °F 43% 30.12 in 6.2 mi NE 6.9 mph - N/A   Partly Cloudy
7:55 PM 69.8 °F 50.0 °F 49% 30.12 in 6.2 mi East 11.5 mph - N/A   Partly Cloudy
8:00 PM 70 °F 50 °F 39% 30.13 in 12 mi East 11.5 mph - -   Scattered Clouds
8:55 PM 68.0 °F 50.0 °F 52% 30.12 in 6.2 mi ENE 13.8 mph - N/A   Partly Cloudy
9:55 PM 66.2 °F 51.8 °F 60% 30.15 in 6.2 mi ENE 11.5 mph - N/A   Partly Cloudy
10:55 PM 62.6 °F 51.8 °F 68% 30.15 in 6.2 mi East 5.8 mph - N/A   Partly Cloudy
11:00 PM 63 °F 51 °F 56% 30.16 in 12 mi East 5.8 mph - -   Scattered Clouds
11:55 PM 62.6 °F 53.6 °F 72% 30.15 in 6.2 mi NE 2.3 mph - N/A   Scattered Clouds